Weather in Seyka

Russia / Altai Republic     51°53′01″N   86°44′00″E
temp.,
°C
wind,
m/s
gust,
m/s
humid.,
%
clouds,
%
prec.,
mm/h
press.,
hPa
HPBL,
m
25 june, sat
sat2501:00+13s11940 0.0 101011
04:00+12sse22960 0.0 101017
07:00+16sse12827 0.0 1010105
10:00+23sw12515 0.0 10091099
13:00+26nw23395 0.0 10082043
16:00+27nw34380 0.0 10081832
19:00+25nw34510 0.0 1008759
22:00+18s11780 0.0 100811
26 june, sun
sun2601:00+15se21890 0.0 100712
04:00+14se22910 0.0 100628
07:00+17se22760 0.0 1005104
10:00+26sse23460 0.0 1003505
13:00+32wsw46270 0.0 10022173
16:00+35sw382220 0.0 10003495
19:00+19se238533 1.0 100260
22:00+16ese2293100 9.8 100434
27 june, mon
mon2701:00+15se229597 9.8 100440
04:00+16sse2292100 0.0 100219
07:00+18sse2288100 0.0 100245
10:00+27se124777 0.0 1001369
13:00+34sw6102492 0.0 9984133
16:00+34wsw91025100 0.0 9983815
19:00+26w411439 0.1 9991065
22:00+17w1499100 2.1 1004228
28 june, tue
tue2801:00+16sw1299100 8.2 100470
04:00+15w2499100 8.8 1006359
07:00+14w1399100 10.0 1008216
10:00+13nw129780 0.3 1009193
13:00+17ene116295 0.3 10081011
16:00+20n125375 0.0 10071329
19:00+18nw126989 0.0 1007164
22:00+15nne117880 0.0 100811
29 june, wed
wed2901:00+15ese117999 0.0 100816
04:00+11sse11955 0.0 100711
07:00+14se12850 0.0 1007137
10:00+21ese12571 0.0 1004711
13:00+26wnw034379 0.0 10011356
16:00+29e1630100 0.0 9992417
19:00+26e2358100 0.0 998127
22:00+19se227173 0.0 99827